Location: Saint-Restitut
(44.3351°N, 4.7915°E)
Time: 15:23:53
(UTC+00:00)

CSL-04 Debris - Pass Details

Date: 29 February 2024
Orbit: 824 x 843 km, 98.8° (Epoch: 21 April)

Event Time Altitude Azimuth Distance (km) Brightness Sun altitude
Exits shadow 20:23:42 22° 217° (SW) 1,744 5.9 -31.6°
Maximum altitude 20:26:19 33° 264° (W) 1,358 5.6 -32.1°
Drops below altitude 10° 20:31:09 10° 328° (NNW) 2,433 7.2 -32.9°
Sets 20:33:45 0° 338° (NNW) 3,371 7.9 -33.3°
